User: anonymous   Login
Location: Luz Observatory
(34.5000°N, 117.2833°W)
Time: 22:18:01
(UTC-07:00)
Language:

Okean 3 Rocket - Orbit

View from above orbital plane
View from above orbital plane
View from above satellite
View from above satellite

Ground track
Ground track

The orbit data is extracted from the following two-line orbital elements,

1 21398U 91039B   16270.14342001  .00000100  00000-0  10196-4 0  9998
2 21398  82.5203 111.9823 0020734 331.9261 167.7490 14.79625763364862
Epoch (UTC): 26 September 2016 03:26:31
Eccentricity: 0.0020734
inclination: 82.5203°
perigee height: 616 km
apogee height: 645 km
right ascension of ascending node: 111.9823°
argument of perigee: 331.9261°
revolutions per day: 14.79625763
mean anomaly at epoch: 167.7490°
orbit number at epoch: 36486

The dashed part of the orbit path shows where the satellite is in the earth's shadow,  

DLR